When you browse on this site, cookies collect data to enhance your experience and personalize the content and advertising you see.
Visit our Privacy Policy to learn more. By continuing to use the site, you agree to this use of cookies and data.
  • In France
  • List of Countries
  • For 7 days
  • Water Temperature
  • Weather Map
  • Weather Widgets
  • user-avatar
    Login

    Hourly Weather San Juan

    Today, 19 February, Wednesday

    Time Temperature Precipitation Wind Pressure Humidity
    00:00 +25°C° 0 mm 1 mps 703 mmHg 33%
    01:00 +22°C° 0 mm 0 mps 703 mmHg 35%
    02:00 +22°C° 0 mm 0 mps 703 mmHg 36%
    03:00 +22°C° 0 mm 0 mps 703 mmHg 37%
    04:00 +21°C° 0 mm 0 mps 703 mmHg 38%
    05:00 +24°C° 0 mm 1 mps 703 mmHg 35%
    06:00 +26°C° 0 mm 1 mps 704 mmHg 32%
    07:00 +27°C° 0 mm 1 mps 704 mmHg 29%
    08:00 +28°C° 0 mm 1 mps 704 mmHg 27%
    09:00 +30°C° 0 mm 2 mps 704 mmHg 25%
    10:00 +31°C° 0 mm 2 mps 705 mmHg 23%
    11:00 +34°C° 0 mm 3 mps 704 mmHg 22%
    12:00 +35°C° 0 mm 3 mps 704 mmHg 20%
    13:00 +36°C° 0 mm 4 mps 704 mmHg 18%
    14:00 +36°C° 0 mm 4 mps 703 mmHg 17%
    15:00 +37°C° 0 mm 5 mps 703 mmHg 16%
    16:00 +38°C° 0 mm 6 mps 703 mmHg 15%
    17:00 +36°C° 0 mm 5 mps 703 mmHg 17%
    18:00 +35°C° 0 mm 5 mps 704 mmHg 19%
    19:00 +33°C° 0 mm 5 mps 705 mmHg 21%
    20:00 +33°C° 0 mm 5 mps 705 mmHg 24%
    21:00 +32°C° 0 mm 5 mps 706 mmHg 27%
    22:00 +30°C° 0 mm 5 mps 707 mmHg 31%
    23:00 +29°C° 0 mm 6 mps 707 mmHg 31%

    Tomorrow, 20 February, Thursday

    Time Temperature Precipitation Wind Pressure Humidity
    00:00 +29°C° 0 mm 8 mps 707 mmHg 32%
    01:00 +28°C° 0 mm 9 mps 707 mmHg 32%
    02:00 +27°C° 0 mm 8 mps 707 mmHg 33%
    03:00 +26°C° 0 mm 7 mps 707 mmHg 33%
    04:00 +24°C° 0 mm 6 mps 707 mmHg 34%
    05:00 +24°C° 0 mm 6 mps 708 mmHg 33%
    06:00 +24°C° 0 mm 6 mps 708 mmHg 32%
    07:00 +24°C° 0 mm 6 mps 708 mmHg 31%
    08:00 +26°C° 0 mm 7 mps 709 mmHg 28%
    09:00 +28°C° 0 mm 7 mps 709 mmHg 25%
    10:00 +29°C° 0 mm 8 mps 709 mmHg 22%
    11:00 +31°C° 0 mm 8 mps 708 mmHg 21%
    12:00 +30°C° 0 mm 7 mps 708 mmHg 20%
    13:00 +32°C° 0 mm 7 mps 707 mmHg 19%
    14:00 +32°C° 0 mm 7 mps 707 mmHg 19%
    15:00 +32°C° 0 mm 8 mps 706 mmHg 18%
    16:00 +31°C° 0 mm 8 mps 706 mmHg 18%
    17:00 +29°C° 0 mm 7 mps 706 mmHg 19%
    18:00 +28°C° 0 mm 7 mps 707 mmHg 20%
    19:00 +27°C° 0 mm 6 mps 707 mmHg 21%
    20:00 +27°C° 0 mm 7 mps 708 mmHg 21%
    21:00 +26°C° 0 mm 7 mps 709 mmHg 22%
    22:00 +26°C° 0 mm 7 mps 710 mmHg 22%
    23:00 +24°C° 0 mm 7 mps 710 mmHg 22%

    Day after tomorrow, 21 February, Friday

    Time Temperature Precipitation Wind Pressure Humidity
    00:00 +24°C° 0 mm 7 mps 710 mmHg 21%
    01:00 +23°C° 0 mm 6 mps 710 mmHg 21%
    08:00 +23°C° 0 mm 6 mps 711 mmHg 20%
    09:00 +23°C° 0 mm 5 mps 711 mmHg 19%
    10:00 +25°C° 0 mm 5 mps 711 mmHg 19%
    11:00 +26°C° 0 mm 5 mps 711 mmHg 18%
    12:00 +27°C° 0 mm 4 mps 710 mmHg 17%
    13:00 +29°C° 0 mm 4 mps 710 mmHg 16%
    14:00 +29°C° 0 mm 5 mps 709 mmHg 16%
    15:00 +29°C° 0 mm 5 mps 709 mmHg 17%
    16:00 +29°C° 0 mm 6 mps 708 mmHg 17%
    17:00 +28°C° 0 mm 5 mps 709 mmHg 18%
    18:00 +27°C° 0 mm 5 mps 709 mmHg 19%
    19:00 +26°C° 0 mm 4 mps 710 mmHg 21%
    20:00 +26°C° 0 mm 4 mps 710 mmHg 22%
    21:00 +25°C° 0 mm 3 mps 710 mmHg 22%
    22:00 +25°C° 0 mm 3 mps 711 mmHg 23%
    23:00 +24°C° 0 mm 3 mps 710 mmHg 25%

    22 February, Saturday

    Time Temperature Precipitation Wind Pressure Humidity
    00:00 +24°C° 0 mm 2 mps 710 mmHg 26%
    01:00 +23°C° 0 mm 2 mps 709 mmHg 28%
    02:00 +21°C° 0 mm 2 mps 709 mmHg 30%
    03:00 +20°C° 0 mm 2 mps 708 mmHg 31%
    04:00 +20°C° 0 mm 2 mps 708 mmHg 32%
    05:00 +21°C° 0 mm 2 mps 708 mmHg 31%
    06:00 +21°C° 0 mm 2 mps 709 mmHg 29%
    07:00 +23°C° 0 mm 2 mps 709 mmHg 27%
    08:00 +24°C° 0 mm 2 mps 708 mmHg 25%
    09:00 +26°C° 0 mm 3 mps 708 mmHg 23%
    10:00 +27°C° 0 mm 3 mps 708 mmHg 22%
    11:00 +28°C° 0 mm 2 mps 707 mmHg 21%
    12:00 +29°C° 0 mm 2 mps 707 mmHg 20%
    13:00 +30°C° 0 mm 2 mps 706 mmHg 20%
    14:00 +31°C° 0 mm 2 mps 706 mmHg 19%
    15:00 +31°C° 0 mm 2 mps 705 mmHg 19%
    16:00 +31°C° 0 mm 3 mps 705 mmHg 19%
    17:00 +30°C° 0 mm 3 mps 705 mmHg 23%
    18:00 +28°C° 0 mm 3 mps 705 mmHg 26%
    19:00 +27°C° 0 mm 4 mps 705 mmHg 29%
    20:00 +26°C° 0 mm 4 mps 706 mmHg 31%
    21:00 +26°C° 0 mm 4 mps 706 mmHg 33%
    22:00 +25°C° 0 mm 4 mps 706 mmHg 35%
    23:00 +23°C° 0 mm 4 mps 706 mmHg 37%

    23 February, Sunday

    Time Temperature Precipitation Wind Pressure Humidity
    00:00 +24°C° 0 mm 3 mps 705 mmHg 38%
    01:00 +22°C° 0 mm 3 mps 705 mmHg 39%
    02:00 +22°C° 0 mm 3 mps 705 mmHg 41%
    03:00 +21°C° 0 mm 3 mps 704 mmHg 42%
    04:00 +21°C° 0 mm 2 mps 704 mmHg 44%
    05:00 +23°C° 0 mm 2 mps 705 mmHg 41%
    06:00 +24°C° 0 mm 2 mps 705 mmHg 39%
    07:00 +25°C° 0 mm 2 mps 705 mmHg 36%
    08:00 +27°C° 0 mm 2 mps 705 mmHg 33%
    09:00 +28°C° 0 mm 2 mps 705 mmHg 30%
    10:00 +30°C° 0 mm 2 mps 705 mmHg 26%
    11:00 +31°C° 0 mm 2 mps 704 mmHg 23%
    12:00 +34°C° 0 mm 2 mps 704 mmHg 20%
    13:00 +35°C° 0 mm 3 mps 703 mmHg 17%
    14:00 +35°C° 0 mm 3 mps 703 mmHg 16%
    15:00 +36°C° 0 mm 3 mps 702 mmHg 16%
    16:00 +36°C° 0 mm 4 mps 702 mmHg 15%
    17:00 +34°C° 0 mm 4 mps 702 mmHg 19%
    18:00 +31°C° 0 mm 3 mps 702 mmHg 23%
    19:00 +30°C° 0 mm 3 mps 702 mmHg 27%
    20:00 +29°C° 0 mm 2 mps 703 mmHg 29%
    21:00 +28°C° 0 mm 2 mps 703 mmHg 32%
    22:00 +27°C° 0 mm 1 mps 703 mmHg 34%
    23:00 +26°C° 0 mm 1 mps 703 mmHg 36%

    24 February, Monday

    Time Temperature Precipitation Wind Pressure Humidity
    00:00 +26°C° 0 mm 1 mps 702 mmHg 38%
    01:00 +25°C° 0 mm 1 mps 702 mmHg 39%
    02:00 +25°C° 0 mm 1 mps 702 mmHg 41%
    03:00 +24°C° 0 mm 1 mps 702 mmHg 42%
    04:00 +24°C° 0 mm 1 mps 701 mmHg 43%
    05:00 +25°C° 0 mm 1 mps 702 mmHg 41%
    06:00 +26°C° 0 mm 1 mps 702 mmHg 38%
    07:00 +27°C° 0 mm 1 mps 703 mmHg 35%
    08:00 +29°C° 0 mm 2 mps 702 mmHg 32%
    09:00 +30°C° 0 mm 2 mps 702 mmHg 30%
    10:00 +32°C° 0 mm 2 mps 702 mmHg 27%
    11:00 +34°C° 0 mm 3 mps 702 mmHg 24%
    12:00 +35°C° 0 mm 4 mps 701 mmHg 22%
    13:00 +36°C° 0 mm 5 mps 701 mmHg 19%
    14:00 +36°C° 0 mm 5 mps 701 mmHg 19%
    15:00 +37°C° 0 mm 5 mps 700 mmHg 18%
    16:00 +37°C° 0 mm 5 mps 700 mmHg 17%
    17:00 +35°C° 0 mm 5 mps 700 mmHg 19%
    18:00 +34°C° 0 mm 4 mps 700 mmHg 21%
    19:00 +33°C° 0 mm 3 mps 701 mmHg 22%
    20:00 +31°C° 0 mm 3 mps 701 mmHg 26%
    21:00 +30°C° 0 mm 3 mps 702 mmHg 30%
    22:00 +29°C° 0 mm 3 mps 702 mmHg 34%
    23:00 +28°C° 0 mm 2 mps 702 mmHg 36%
    Show more